Location: M?digepalle
(16.1753°N, 80.3496°E)
Time: 08:57:56
(UTC+00:00)

ASC 2 Rocket - Pass Details

Date: 29 October 2020
Orbit: 555 x 2345 km, 24.0° (Epoch: 27 November)

Event Time Altitude Azimuth Distance (km) Brightness Sun altitude
Rises 13:11:36 0° 294° (WNW) 2,726 7.4 -15.4°
Reaches altitude 10° 13:13:45 10° 301° (WNW) 1,879 6.3 -15.9°
Maximum altitude 13:17:48 45° 15° (NNE) 884 3.6 -16.8°
Enters shadow 13:19:44 30° 68° (ENE) 1,253 4.0 -17.3°
